FW7278 Weather Reports


Display with metric or nautical units.
time (UTC)temp
F
wind
direction
speed
MPH
gust
MPH
rain 1hr
in
rain 24hr
in
rain mn
in
humidity
%
barometer
mb
20260510224550 71 355 3.0 10.0 0.00 0.00 0.00 43 1019.1
20260510223055 71 360 4.0 12.0 0.00 0.00 0.00 43 1019.2
20260510221600 71 360 3.0 10.0 0.00 0.00 0.00 44 1019.2
20260510220059 71 341 3.0 9.0 0.00 0.00 0.00 41 1019.7
20260510214558 72 21 5.0 11.0 0.00 0.00 0.00 40 1019.5
20260510213106 72 342 3.0 10.0 0.00 0.00 0.00 39 1019.6
20260510211555 72 347 6.0 12.0 0.00 0.00 0.00 37 1019.5
20260510210054 72 340 4.0 12.0 0.00 0.00 0.00 37 1019.5
20260510204554 73 312 3.0 12.0 0.00 0.00 0.00 35 1019.4
20260510203049 73 311 4.0 13.0 0.00 0.00 0.00 37 1019.5
20260510201555 73 327 4.0 12.0 0.00 0.00 0.00 40 1019.4
20260510200052 73 317 4.0 13.0 0.00 0.00 0.00 39 1019.6
20260510194558 73 10 7.0 12.0 0.00 0.00 0.00 40 1019.3
20260510193058 73 44 5.0 13.0 0.00 0.00 0.00 39 1019.4
20260510191555 73 54 5.0 12.0 0.00 0.00 0.00 37 1019.5
20260510190110 73 20 4.0 10.0 0.00 0.00 0.00 40 1019.3
20260510184555 73 292 5.0 14.0 0.00 0.00 0.00 44 1019.3
20260510183057 72 46 2.0 13.0 0.00 0.00 0.00 42 1019.1
20260510181555 73 330 4.0 16.0 0.00 0.00 0.00 41 1019.1
20260510180104 73 63 8.0 17.0 0.00 0.00 0.00 42 1019.2
20260510174600 73 325 4.0 19.0 0.00 0.00 0.00 41 1019.0
20260510173056 72 28 5.0 12.0 0.00 0.00 0.00 42 1019.2
20260510171601 71 352 6.0 12.0 0.00 0.00 0.00 44 1019.1
20260510170050 71 5 8.0 16.0 0.00 0.00 0.00 45 1019.3
20260510164605 71 345 3.0 14.0 0.00 0.01 0.00 47 1019.4
20260510163131 71 355 8.0 13.0 0.00 0.01 0.00 45 1019.4
20260510161550 71 322 5.0 12.0 0.00 0.01 0.00 53 1019.5
20260510160100 69 336 4.0 16.0 0.00 0.01 0.00 53 1019.5
20260510154556 68 317 7.0 15.0 0.00 0.01 0.00 57 1019.3
20260510153103 67 313 5.0 12.0 0.00 0.01 0.00 59 1019.2
20260510151628 66 355 4.0 11.0 0.00 0.01 0.00 60 1018.9
20260510150059 65 339 4.0 9.0 0.00 0.01 0.00 63 1018.6
20260510144604 64 355 5.0 13.0 0.00 0.01 0.00 65 1018.6
20260510143106 63 360 4.0 13.0 0.00 0.01 0.00 69 1018.4
20260510141559 61 5 6.0 12.0 0.00 0.01 0.00 74 1017.8
20260510140051 60 9 7.0 11.0 0.00 0.01 0.00 76 1017.8
20260510134558 60 0 3.0 10.0 0.00 0.01 0.00 78 1017.8
20260510133059 60 350 6.0 13.0 0.00 0.01 0.00 78 1017.8
20260510131557 60 12 7.0 14.0 0.00 0.01 0.00 80 1017.1
20260510130056 60 335 6.0 12.0 0.00 0.01 0.00 81 1017.4
20260510124601 60 335 3.0 12.0 0.00 0.01 0.00 83 1017.5
20260510123056 60 338 4.0 14.0 0.00 0.01 0.00 85 1017.3
20260510121552 60 322 3.0 11.0 0.00 0.01 0.00 86 1016.8
20260510120057 60 323 5.0 10.0 0.00 0.01 0.00 87 1016.5
20260510114554 60 319 7.0 12.0 0.00 0.01 0.00 88 1016.2
20260510113056 60 327 3.0 9.0 0.00 0.01 0.00 87 1016.0
20260510111554 60 326 2.0 9.0 0.00 0.01 0.00 87 1015.5
20260510110055 60 279 2.0 8.0 0.00 0.01 0.00 86 1015.6
20260510104558 61 252 1.0 5.0 0.00 0.01 0.00 85 1015.0
20260510103057 61 273 1.0 5.0 0.00 0.01 0.00 85 1014.6
20260510101555 61 17 1.0 3.0 0.00 0.01 0.00 84 1014.5
20260510100117 61 339 0.0 3.0 0.00 0.01 0.00 84 1014.3
20260510094602 62 279 1.0 6.0 0.00 0.01 0.00 84 1014.4
20260510093059 62 271 1.0 7.0 0.00 0.01 0.00 83 1014.5
20260510091556 62 0 1.0 4.0 0.00 0.01 0.00 83 1014.2
20260510084610 62 325 3.0 6.0 0.00 0.01 0.00 83 1013.8
20260510083052 62 144 0.0 5.0 0.00 0.01 0.00 83 1013.2
20260510081558 62 180 1.0 5.0 0.00 0.01 0.00 83 1013.3
20260510080052 62 0 2.0 5.0 0.00 0.01 0.00 82 1013.3
20260510074604 63 0 0.0 3.0 0.00 0.01 0.00 81 1013.2
20260510073103 63 0 2.0 8.0 0.00 0.01 0.00 81 1013.2
20260510071553 63 57 2.0 3.0 0.00 0.01 0.00 80 1013.4
20260510070056 64 44 1.0 3.0 0.00 0.01 0.00 77 1013.5
20260510064556 64 28 2.0 7.0 0.00 0.12 0.00 76 1014.0
20260510063053 65 360 4.0 8.0 0.00 0.12 0.00 74 1014.0
20260510061558 65 355 5.0 10.0 0.00 0.12 0.00 73 1013.9
20260510060056 66 5 6.0 11.0 0.00 0.12 0.00 71 1013.8
20260510054551 67 346 5.0 14.0 0.00 0.44 0.00 67 1013.7
20260510053109 68 344 4.0 11.0 0.00 0.44 0.00 63 1013.5
20260510051554 68 290 5.0 10.0 0.00 0.44 0.00 62 1013.0
20260510050056 68 218 6.0 11.0 0.00 0.44 0.00 62 1011.8
20260510044559 68 205 4.0 9.0 0.00 0.51 0.44 63 1011.8
20260510043106 68 193 6.0 12.0 0.00 0.51 0.44 63 1011.7
20260510041550 68 190 4.0 10.0 0.00 0.51 0.44 63 1011.7
20260510040100 68 205 3.0 9.0 0.00 0.51 0.44 62 1011.8
20260510034557 69 213 2.0 9.0 0.00 0.51 0.44 62 1011.6
20260510033133 69 184 4.0 10.0 0.00 0.51 0.44 61 1011.5
20260510031610 69 189 3.0 10.0 0.00 0.51 0.44 61 1011.5
20260510030058 70 189 4.0 7.0 0.00 0.51 0.44 60 1011.4
20260510024552 70 169 3.0 7.0 0.00 0.51 0.44 60 1011.2
20260510023052 70 167 1.0 7.0 0.00 0.51 0.44 57 1010.9
20260510021550 70 117 1.0 3.0 0.00 0.51 0.44 56 1010.7
20260510020052 71 131 1.0 6.0 0.00 0.51 0.44 54 1010.7
20260510014550 72 195 0.0 4.0 0.00 0.51 0.44 53 1010.3
20260510013051 72 0 1.0 5.0 0.00 0.51 0.44 51 1010.1
20260510011552 73 0 0.0 3.0 0.00 0.51 0.44 49 1010.1
20260510010058 75 188 1.0 5.0 0.00 0.51 0.44 48 1009.8
20260510004552 77 0 0.0 2.0 0.00 0.51 0.44 45 1009.7
20260510003052 79 0 0.0 3.0 0.00 0.51 0.44 41 1009.6
20260510001550 80 240 0.0 4.0 0.00 0.51 0.44 37 1009.5
20260510000105 81 0 1.0 4.0 0.00 0.51 0.44 36 1009.4
20260509234601 82 250 1.0 4.0 0.00 0.51 0.44 34 1009.3
20260509233051 83 257 3.0 7.0 0.00 0.51 0.44 33 1009.3
20260509231552 83 258 4.0 10.0 0.00 0.51 0.44 32 1009.3
20260509230053 83 257 2.0 7.0 0.00 0.51 0.44 32 1009.3